Location: Bennemühlen
(52.5740°N, 9.7135°E)
Time: 07:40:55
(UTC+00:00)

Vanguard 2 Rocket - Pass Details

Date: 16 February 2026
Orbit: 553 x 3286 km, 32.9° (Epoch: 7 March)

Event Time Altitude Azimuth Distance (km) Brightness Sun altitude
Rises 11:21:21 0° 212° (SSW) 7,224 12.3 25.1°
Reaches altitude 10° 11:28:03 10° 200° (SSW) 6,031 12.5 25.2°
Maximum altitude 11:40:04 22° 159° (SSE) 4,410 12.0 25.2°
Drops below altitude 10° 11:49:20 10° 115° (ESE) 4,564 10.8 25.1°
Sets 11:53:23 0° 101° (E) 5,139 10.8 25.1°
